Wind_Speed
26 26 25 25 24 23 21 20 19 18 16 15 14 13 12 12 12 13 14 13 13 14 16 17 17 17 17 17 17 18 19 20 22 24 26 28 30 32 34 36 37 38 40 41 42 43 44 45 47 48 49 50 52 53 53 54 55 56 57 57 57 57 58 61 61 59 57 57 58 58 58 58 57 58 58 60 61 61 63 65 67 70 71 70 73 78 77
25 24 24 23 22 21 20 19 18 17 15 14 12 12 12 12 13 13 13 13 15 17 17 16 17 17 17 16 17 18 20 22 23 25 27 29 31 33 34 36 37 38 40 42 44 45 46 46 48 49 50 51 52 53 54 55 56 57 58 58 59 58 58 60 62 62 62 62 61 60 60 59 58 58 58 59 61 62 64 66 67 70 71 72 75 78 77
24 23 22 21 20 20 18 17 16 15 13 12 11 12 12 13 13 13 13 14 17 17 16 16 17 17 16 17 18 19 21 23 24 25 28 30 31 33 34 36 37 38 40 41 42 44 46 47 48 49 50 51 53 54 55 56 57 58 59 60 60 60 59 59 61 61 62 62 62 62 62 61 60 58 58 59 61 63 65 66 67 70 72 74 75 78 80
22 22 21 20 18 17 16 15 14 13 12 11 11 12 13 13 14 14 15 16 17 16 15 16 17 17 17 18 19 21 22 23 25 26 28 30 32 33 35 36 37 38 39 40 41 43 45 47 49 50 51 52 53 55 55 57 58 59 60 61 62 62 61 60 60 59 58 60 62 63 63 63 61 59 58 60 63 64 65 66 68 69 72 74 74 76 81
22 21 20 18 17 15 14 13 12 11 10 10 11 12 13 14 14 15 16 16 16 15 16 16 17 18 19 19 21 22 23 24 25 27 28 31 32 33 35 36 37 39 40 40 42 43 45 47 49 50 51 52 54 55 57 58 59 61 61 63 64 65 64 64 63 60 58 61 64 63 62 62 61 60 60 62 64 64 65 66 67 68 73 75 74 75 81
22 20 19 17 16 14 13 12 11 10 9 10 11 13 14 14 14 14 14 15 14 15 16 17 18 19 20 21 22 23 24 24 26 27 29 31 32 34 35 37 38 39 41 42 43 44 45 47 49 50 52 53 55 56 58 59 60 62 63 64 66 67 67 68 67 63 60 63 65 64 63 62 61 60 62 64 65 65 66 66 67 69 72 75 76 78 80
20 19 18 17 15 14 13 12 11 10 10 10 11 13 13 13 13 13 13 14 14 15 16 17 18 19 20 22 23 23 24 25 26 28 29 30 32 34 35 37 38 40 41 43 44 46 47 48 49 51 52 54 56 58 59 61 62 64 65 66 68 69 69 71 72 67 63 65 67 65 64 64 62 61 63 65 66 66 67 68 68 70 72 74 78 80 80
19 18 18 17 17 16 15 14 13 11 11 12 13 13 13 12 13 12 12 13 13 14 16 17 19 20 21 22 23 24 25 26 27 28 29 31 32 34 35 37 38 40 41 43 44 46 47 49 51 52 53 55 58 59 61 62 64 65 67 68 69 71 71 73 75 72 68 69 70 68 66 66 64 64 65 66 67 68 69 70 71 72 73 75 78 80 79
20 20 19 19 18 17 16 15 15 14 12 12 13 12 12 12 12 12 12 12 13 14 16 18 20 21 22 23 24 24 25 27 27 28 30 31 32 33 35 36 38 39 41 43 44 46 47 49 51 53 55 56 59 61 62 64 65 66 68 70 71 73 73 74 76 75 73 73 73 71 69 69 67 68 69 68 69 71 72 73 73 73 75 78 79 80 81
21 20 20 19 18 17 16 15 14 14 13 12 12 11 10 10 11 11 12 13 13 14 16 18 20 21 22 23 24 25 26 27 28 29 30 31 32 33 35 37 38 40 42 43 45 46 48 50 52 54 55 57 59 61 63 65 67 69 70 72 73 74 75 75 76 77 76 76 76 74 73 73 72 71 72 71 71 73 76 76 74 72 74 78 80 81 82
20 19 19 19 18 17 16 15 13 12 12 12 11 9 8 8 9 10 12 13 13 14 16 18 20 21 22 24 25 25 26 27 28 29 30 31 32 33 35 37 39 40 42 44 45 47 48 50 53 55 57 59 61 63 65 67 69 71 72 73 74 75 76 76 77 79 79 78 78 77 74 73 74 74 73 73 74 76 78 78 75 73 74 77 79 80 81
17 17 17 17 17 16 16 15 13 11 11 10 9 7 7 8 9 10 11 13 14 15 17 19 20 22 23 24 25 26 27 28 29 29 30 31 32 33 35 37 39 41 43 44 46 47 49 52 54 56 58 60 62 64 66 68 70 72 73 74 76 76 77 77 77 79 81 80 80 79 76 73 74 75 74 75 76 77 80 81 77 74 77 79 80 81 82
15 14 14 14 14 14 14 13 12 11 10 9 8 7 6 8 9 10 11 13 14 15 17 19 20 22 23 24 25 26 27 28 28 29 30 31 32 33 35 37 39 41 43 45 46 48 50 52 55 57 58 60 62 64 67 69 71 73 74 75 77 77 78 78 78 78 81 82 80 79 78 75 75 77 76 76 78 78 81 85 80 77 81 83 83 84 85
11 11 11 11 11 11 11 11 11 10 9 8 8 7 7 8 9 10 11 13 14 16 17 19 20 22 24 25 26 27 27 28 28 29 30 30 31 33 34 37 39 41 43 45 47 49 51 53 55 57 58 60 62 64 67 69 71 73 75 76 78 78 79 79 79 78 81 82 81 81 81 80 78 78 77 77 79 79 83 88 86 83 84 85 85 86 87
9 9 8 8 8 8 9 9 9 9 9 8 9 8 8 9 10 10 11 13 15 16 17 19 21 23 24 25 26 27 27 28 29 29 29 30 31 33 35 37 39 41 43 46 48 50 52 54 56 58 59 61 63 66 69 71 73 75 76 77 78 79 79 80 80 79 80 83 82 81 81 81 80 79 78 78 79 80 83 88 89 87 86 86 86 88 89
8 8 7 7 7 7 8 8 9 9 9 9 10 9 9 10 11 11 12 14 15 16 18 19 21 23 24 25 26 27 27 28 28 29 29 30 31 33 35 37 39 42 44 46 49 51 54 56 57 59 61 63 65 68 71 72 74 75 77 78 79 80 80 81 81 81 81 82 82 79 78 79 79 79 79 79 80 82 85 89 91 89 87 87 88 90 90
8 8 8 7 7 7 8 8 8 9 9 10 10 10 10 11 11 11 13 14 15 17 18 20 22 23 25 26 26 27 27 28 28 28 29 30 31 33 34 37 39 42 44 47 49 52 54 56 58 60 62 64 67 69 72 74 76 77 78 79 80 81 81 82 82 82 81 82 82 79 77 77 78 79 80 82 83 85 87 90 92 91 89 89 90 91 90
7 7 8 8 7 7 8 8 9 9 10 10 11 11 11 11 11 12 13 14 15 16 18 20 22 24 25 26 27 27 28 28 28 29 30 30 32 33 35 38 40 42 45 47 49 52 54 56 58 61 63 65 68 71 73 75 77 78 79 80 81 82 82 83 83 83 82 82 84 82 79 79 80 80 82 84 86 87 88 90 91 92 92 92 91 91 91
5 6 7 7 7 8 8 8 9 9 10 11 11 11 11 11 11 13 14 15 16 17 18 20 22 24 25 26 27 28 28 28 29 30 30 31 32 34 36 38 40 43 45 47 50 52 54 56 59 61 63 66 69 71 74 76 78 80 81 81 82 83 84 84 85 84 82 82 84 83 81 81 82 82 83 85 87 88 89 90 90 92 94 94 93 91 91
4 5 6 6 6 7 7 8 9 9 10 11 11 12 11 11 12 13 14 15 15 17 19 21 22 24 26 27 27 28 28 29 29 30 30 31 33 35 36 38 41 43 45 47 50 52 54 56 59 61 63 66 69 72 74 77 79 80 81 83 83 84 85 85 85 85 84 83 83 82 80 80 81 83 85 86 86 87 89 91 93 94 95 96 94 92 90
5 4 4 5 5 6 6 7 8 9 10 12 12 12 12 12 13 14 14 14 15 17 19 21 23 25 27 27 28 28 29 29 29 30 31 32 34 35 37 39 42 43 45 47 49 52 54 56 59 62 64 67 69 73 75 77 79 80 82 83 83 85 86 86 86 86 85 83 83 81 79 80 81 82 84 86 87 88 90 93 96 96 96 97 96 93 90
6 4 4 4 5 5 6 7 8 10 11 12 13 13 13 12 13 13 14 15 16 17 19 21 23 25 27 27 28 28 29 29 29 30 31 32 34 35 37 39 41 43 45 47 50 52 54 57 59 62 64 67 70 73 76 79 80 81 82 83 83 85 86 86 86 87 85 84 84 82 80 81 82 81 83 86 88 90 93 96 98 98 97 97 96 94 90
7 6 5 5 5 6 7 8 9 10 11 12 12 12 12 12 12 13 14 15 16 17 19 21 24 26 27 27 28 28 29 29 29 30 31 32 33 35 37 39 41 43 45 47 50 52 54 57 60 62 64 67 71 74 77 79 81 82 82 83 84 85 86 86 87 89 88 87 86 84 81 81 83 83 84 88 91 93 95 97 99 99 98 97 96 94 91
8 7 6 6 6 7 8 8 9 9 10 11 12 12 12 13 13 13 14 15 15 17 19 22 25 26 27 28 28 29 29 29 30 30 31 32 33 34 36 39 41 43 45 47 50 52 54 57 60 62 65 68 72 76 78 80 82 82 82 83 83 84 85 87 88 90 91 90 89 86 82 82 84 86 87 90 93 95 97 99 100 101 100 99 96 93 90
9 9 8 7 7 8 9 9 9 9 10 11 12 12 13 13 13 13 14 15 16 17 20 23 25 27 28 28 29 29 30 30 30 31 31 32 33 35 36 39 41 43 45 47 49 52 54 57 59 62 65 69 73 76 79 81 82 83 83 83 84 85 86 88 90 91 91 91 90 89 85 83 84 87 89 92 95 97 99 101 102 103 103 101 97 93 90
11 10 9 9 8 9 9 10 10 9 10 10 11 12 13 13 13 13 14 15 16 18 21 23 25 27 28 28 29 30 30 30 30 31 31 32 33 35 36 39 41 44 45 47 50 52 54 57 59 62 66 69 73 76 79 82 83 84 84 84 84 85 87 89 91 92 92 91 91 92 91 88 86 88 91 94 98 100 102 103 104 104 103 102 99 94 90
12 12 12 11 10 10 10 11 10 9 10 10 11 12 13 13 13 13 14 15 16 18 21 23 25 28 28 29 30 30 30 30 30 31 32 33 34 35 37 39 42 44 46 48 50 52 54 57 60 63 66 70 73 76 79 82 83 84 84 84 84 85 87 89 91 93 94 93 92 93 94 93 91 91 93 96 99 102 104 105 106 105 104 102 100 95 91
14 14 14 14 13 12 11 11 10 9 9 10 11 12 13 13 13 14 14 15 16 18 21 24 26 28 29 29 30 31 30 30 30 31 32 33 34 35 37 39 42 44 46 48 50 52 55 57 60 63 67 70 73 76 79 81 83 84 84 84 85 86 87 90 92 94 95 94 92 92 94 94 93 93 94 97 100 103 105 106 107 106 105 103 100 96 92
16 16 16 15 14 13 12 11 10 9 9 10 11 12 13 13 13 13 14 14 16 18 21 24 26 28 29 30 31 30 30 30 30 31 32 33 34 36 37 39 42 44 46 49 51 53 55 57 60 63 67 69 72 76 79 81 84 85 85 85 86 87 88 90 92 94 94 94 92 92 93 94 93 93 95 98 101 103 106 107 108 107 105 103 100 96 92
19 19 18 17 15 13 12 11 9 9 10 10 12 13 13 13 13 13 14 14 16 19 22 24 27 29 30 31 31 30 29 30 30 31 32 34 35 36 38 39 42 45 47 49 51 53 55 58 60 64 67 69 72 75 79 82 85 86 86 87 87 86 87 89 91 93 94 94 93 92 93 94 94 94 95 97 101 104 107 109 109 108 106 103 100 96 92
21 19 17 15 14 13 12 10 9 10 10 11 12 13 13 13 13 13 13 15 16 19 22 24 27 29 30 31 30 29 29 29 30 31 33 34 35 36 37 39 42 45 48 50 51 53 56 58 61 64 66 69 72 75 79 83 85 86 87 88 87 87 87 88 90 92 94 95 95 94 94 94 94 94 95 98 101 105 108 109 109 108 106 103 100 96 92
20 16 13 12 12 11 11 10 10 10 11 11 12 13 13 13 13 13 13 15 17 19 22 25 28 29 30 31 30 30 30 30 30 32 34 34 35 36 37 39 42 45 48 50 52 54 56 58 61 64 66 69 72 76 79 83 85 87 87 88 88 87 87 88 89 92 94 96 98 98 97 97 96 96 98 100 103 105 108 110 110 109 107 104 100 97 93
17 12 9 9 10 10 10 9 10 10 11 12 13 13 13 13 13 13 13 15 17 20 22 25 28 30 31 31 30 30 31 31 31 32 33 34 36 37 37 39 42 45 48 50 52 54 56 59 61 64 66 69 72 76 80 83 85 87 88 88 89 88 88 88 89 91 94 97 99 101 101 100 98 97 98 100 103 105 108 111 112 111 109 106 102 99 95
15 10 8 7 8 9 9 9 10 10 11 12 13 14 13 13 12 12 14 16 18 20 22 26 28 30 32 31 30 30 31 31 31 33 33 34 36 37 38 40 43 45 48 50 52 54 57 59 61 64 66 69 72 76 79 82 84 86 87 88 89 89 88 88 89 91 94 97 99 101 101 100 99 98 99 101 103 106 109 111 112 112 110 107 104 101 97
14 11 8 8 8 8 8 9 10 10 11 12 13 14 13 12 12 12 14 16 18 20 23 26 28 30 31 30 29 30 31 31 32 33 34 35 36 37 38 40 42 45 47 49 52 54 57 59 61 64 67 70 73 76 79 82 83 85 87 88 89 89 89 89 89 91 93 96 99 101 101 101 100 99 99 101 103 105 108 111 113 113 112 109 105 102 99
14 12 10 8 8 8 8 9 10 11 12 13 14 13 12 11 12 13 14 16 18 20 23 26 28 29 30 29 29 30 31 31 32 33 34 35 35 36 37 40 42 45 47 49 51 54 57 59 62 64 67 70 73 76 79 81 83 85 87 89 90 90 90 90 90 91 93 96 98 101 101 101 100 99 99 101 103 106 108 111 113 114 113 110 107 104 100
14 13 11 10 9 9 9 10 11 12 13 13 14 13 11 11 12 13 14 16 18 20 24 26 28 30 30 30 30 31 31 32 33 34 35 35 36 36 38 40 43 45 47 49 52 55 57 59 62 65 68 71 74 76 78 81 83 85 88 90 91 91 91 91 91 91 92 94 97 99 101 102 101 100 100 102 104 106 109 112 114 115 114 111 108 105 101
15 14 13 12 11 11 12 12 12 13 13 14 14 12 11 11 12 13 15 16 18 21 24 27 29 30 30 30 30 31 32 33 34 35 35 36 36 37 38 40 43 45 47 49 52 55 57 59 62 65 68 71 74 76 78 80 83 86 89 91 92 92 92 92 92 93 94 96 98 101 103 104 104 102 102 103 105 107 109 112 114 115 114 112 109 105 102
16 15 14 14 13 13 13 13 13 13 14 14 13 13 12 12 13 14 15 17 19 22 24 26 28 29 29 29 30 31 33 34 34 35 35 36 37 38 39 41 43 45 47 49 52 55 57 60 63 65 68 71 74 76 78 80 83 86 89 91 92 93 93 93 93 94 96 98 101 103 105 106 105 104 103 104 105 107 109 112 114 114 114 112 110 106 102
16 15 15 14 14 14 14 13 13 14 14 14 13 12 12 12 13 14 15 17 19 21 24 26 27 28 29 29 30 31 33 34 35 35 35 36 37 38 40 42 44 45 47 50 53 55 58 60 63 65 68 71 73 75 77 80 83 86 89 91 93 93 94 94 94 95 96 98 100 103 104 105 105 104 104 104 105 107 109 111 113 114 114 113 110 106 103
15 15 15 15 14 14 14 13 13 14 14 13 12 12 12 13 14 14 15 17 19 21 23 25 26 27 28 29 30 31 33 34 35 35 36 36 37 39 40 42 44 46 48 51 53 56 58 61 63 65 68 71 73 75 77 80 83 86 88 91 92 94 94 94 94 95 96 97 99 102 103 104 105 104 104 104 105 107 109 111 113 114 114 112 110 107 103
15 15 15 15 14 14 13 13 13 13 13 13 13 13 13 13 14 15 16 17 19 21 23 25 26 27 29 30 31 32 34 35 35 36 36 36 38 39 41 42 44 46 48 51 54 56 59 61 64 66 68 70 72 75 77 80 83 85 88 90 92 94 94 94 94 95 96 97 99 101 103 104 105 105 104 104 105 106 108 110 112 113 113 112 110 107 103
15 15 15 14 14 13 13 13 13 13 13 13 13 13 13 14 14 15 16 18 19 21 23 25 26 27 29 31 32 33 34 35 36 36 37 37 39 40 41 43 45 47 49 51 54 57 59 62 64 66 68 70 72 74 77 80 82 85 87 89 92 93 94 95 95 95 96 97 99 101 102 104 105 105 105 104 104 105 106 108 111 112 113 112 110 107 103
16 16 16 15 14 14 13 13 13 13 13 13 13 13 14 14 14 16 17 18 19 21 23 24 26 27 29 31 33 34 35 36 36 37 37 38 39 41 42 43 45 47 49 52 55 58 60 62 65 66 68 69 71 74 76 79 82 84 86 89 91 93 94 95 95 95 96 97 98 100 102 103 104 105 105 104 104 104 106 107 109 111 112 111 110 107 104
16 16 16 15 14 14 13 12 12 13 13 13 13 13 14 14 15 16 17 18 20 21 22 24 26 28 29 31 33 34 35 36 36 37 38 39 40 41 42 44 46 48 51 53 56 59 61 63 65 66 67 69 70 73 76 79 82 83 85 88 90 92 94 95 95 95 96 97 98 100 101 103 104 105 105 104 104 105 106 107 109 110 111 111 109 107 104
16 16 15 15 15 14 13 12 12 12 13 13 13 13 14 14 15 16 17 18 20 21 23 24 26 28 30 31 33 34 35 36 37 37 38 39 40 41 43 44 47 50 52 55 58 60 62 63 65 66 67 68 70 72 75 79 81 83 85 87 89 91 93 95 95 96 96 97 98 100 101 103 105 105 105 105 104 104 106 107 108 110 111 111 109 107 105
16 15 15 15 15 14 13 12 12 12 12 13 13 13 14 15 16 17 18 19 20 21 23 25 26 28 30 31 33 34 36 36 37 38 39 40 41 42 44 46 48 51 54 57 59 61 63 63 64 65 66 68 70 72 75 78 81 83 84 86 88 91 93 94 95 96 96 97 98 99 101 103 105 105 105 105 104 104 105 106 108 110 111 111 109 107 105
16 15 15 15 15 14 13 12 12 12 12 12 13 13 14 15 16 17 18 19 20 22 23 24 26 28 29 31 33 34 36 36 37 38 39 40 42 43 45 47 50 52 55 57 60 62 63 63 64 65 66 67 69 72 75 77 80 82 84 86 88 90 92 94 95 96 96 97 98 99 100 102 104 105 105 105 104 104 105 106 107 109 110 110 109 107 105
15 15 15 15 15 14 13 12 11 12 12 13 13 13 14 15 16 17 18 20 21 22 23 25 26 28 29 31 32 34 35 37 38 39 40 42 43 45 46 49 51 53 56 58 60 62 63 63 63 64 65 67 69 72 74 77 79 81 83 85 87 89 92 94 95 96 96 97 98 99 100 102 104 105 105 104 104 104 104 105 106 108 109 109 109 108 106
14 15 15 15 14 13 13 12 12 12 12 13 13 14 14 15 16 18 19 20 21 22 23 25 26 28 29 31 32 34 35 37 39 40 41 43 44 46 48 50 52 54 56 59 60 62 63 63 63 64 65 67 69 71 74 76 79 81 83 84 86 88 91 93 95 96 97 97 98 98 100 101 103 104 105 104 104 104 104 105 106 107 108 109 109 108 106
15 15 15 14 14 13 12 12 12 12 13 13 13 14 15 16 17 18 19 21 22 23 24 26 27 29 30 32 33 34 36 38 40 41 42 44 45 47 49 51 53 55 57 58 60 62 63 63 63 63 65 66 68 70 73 76 78 80 82 83 85 88 90 93 95 96 97 98 98 98 99 101 102 104 105 105 104 103 103 103 105 106 107 107 108 108 106
16 15 15 14 14 13 13 13 13 14 14 14 15 15 16 17 18 19 21 22 24 25 26 27 29 30 32 34 35 36 37 39 41 42 43 44 46 48 49 51 53 55 57 59 60 62 62 63 63 63 64 65 67 70 72 75 78 80 81 83 84 87 89 92 94 96 98 98 99 99 99 100 102 103 104 104 103 102 101 102 103 104 105 106 107 107 107
Wind_Direction
110 111 111 110 110 110 109 108 106 103 99 95 92 87 78 70 66 67 67 64 61 57 51 46 42 38 36 35 36 37 37 38 37 36 35 33 31 30 27 25 22 20 18 16 14 14 12 11 10 9 8 6 4 3 1 360 358 356 355 354 353 352 351 350 351 351 350 348 348 347 346 346 344 340 338 335 333 331 328 327 328 328 328 326 322 324 329
108 110 111 111 110 110 108 106 105 102 98 93 87 80 73 68 69 71 71 68 61 53 46 42 40 37 34 34 35 36 36 36 35 33 33 31 29 28 26 23 21 19 17 15 13 11 10 10 8 7 6 4 3 1 360 358 357 356 355 354 353 352 351 350 351 350 348 348 349 349 348 347 345 342 339 335 333 331 330 329 328 328 329 326 322 324 326
106 108 110 111 111 110 109 107 105 100 96 91 82 76 73 72 75 76 73 66 58 49 42 41 39 36 34 34 34 34 34 33 32 30 30 29 27 26 24 21 20 18 17 15 13 11 9 8 7 5 4 3 1 0 359 357 356 355 354 353 353 353 352 351 352 352 348 348 349 349 349 349 347 344 340 336 335 333 332 330 329 328 328 327 325 325 325
104 106 109 111 112 112 111 109 106 101 96 89 80 77 77 77 79 77 68 61 56 48 42 41 38 35 34 34 33 33 32 30 30 28 28 27 25 23 22 19 18 18 16 15 14 11 8 7 5 4 3 2 0 359 358 357 355 355 354 353 353 353 352 351 354 354 349 347 349 349 348 348 347 345 341 337 336 336 334 332 331 328 327 328 329 325 323
103 104 106 108 110 111 111 109 105 100 95 89 83 82 81 78 76 70 62 59 54 47 43 41 36 35 34 33 32 31 29 28 28 27 26 25 23 21 20 18 17 16 14 13 12 10 8 6 5 3 1 0 360 358 357 356 356 355 354 354 352 353 352 352 354 356 350 347 350 350 348 348 347 344 342 340 338 337 336 334 332 329 327 328 329 325 323
101 101 102 103 104 105 105 103 100 96 92 90 88 86 83 77 71 64 60 57 51 44 43 40 36 35 33 31 30 29 27 26 26 26 24 23 21 19 19 17 15 14 12 10 9 8 7 5 4 2 360 359 359 358 357 356 356 355 354 354 353 352 352 351 353 356 352 348 350 351 349 348 347 344 343 341 340 338 337 336 334 331 329 328 328 326 326
98 99 100 101 102 102 102 100 99 96 95 95 93 88 84 76 65 58 55 53 47 42 41 39 35 34 31 29 28 27 26 25 25 24 23 22 20 18 17 16 14 12 11 9 7 6 5 3 2 1 360 358 358 357 357 356 356 355 355 354 353 352 353 351 351 355 353 350 351 352 350 350 349 346 344 343 342 340 339 338 337 334 332 329 328 327 328
94 95 97 99 101 102 103 102 99 97 98 98 94 89 83 73 61 52 48 47 44 40 38 36 33 31 29 27 26 25 25 24 24 23 21 20 19 17 16 14 12 11 10 8 7 5 3 2 2 1 0 359 358 357 357 356 356 356 355 354 353 352 353 351 350 353 353 350 351 352 351 350 349 348 347 346 345 343 341 341 340 337 334 331 329 328 329
91 90 90 92 94 96 98 99 98 97 96 91 86 82 77 68 58 48 42 40 39 37 34 32 30 28 26 25 24 24 24 23 22 21 20 18 17 15 14 12 11 10 9 8 7 5 3 3 2 1 1 360 359 358 357 357 357 356 355 354 353 352 353 351 350 351 352 351 351 352 352 350 350 349 349 348 347 346 344 343 342 338 334 332 330 330 330
89 87 86 85 85 86 87 89 92 95 94 85 78 73 68 61 53 45 39 37 36 33 30 28 27 26 24 24 23 22 22 21 20 19 18 17 15 13 11 10 9 9 8 7 5 4 4 3 2 2 1 0 359 359 358 357 356 356 355 354 353 353 352 352 350 350 352 351 351 352 352 351 351 351 350 349 349 348 347 346 345 340 334 331 331 331 330
86 83 81 80 78 78 78 80 82 86 86 82 75 65 55 48 42 38 35 34 33 30 27 25 24 24 23 22 21 20 20 19 17 17 16 15 13 11 10 8 7 7 6 5 4 4 4 3 2 2 1 0 359 358 357 356 355 355 354 353 354 353 353 353 351 350 351 352 351 352 352 352 352 352 351 350 349 349 348 348 346 341 335 333 332 331 330
83 80 78 76 75 74 73 73 74 74 74 74 70 56 40 32 29 28 29 30 29 27 24 21 21 22 21 20 19 18 17 17 16 14 13 12 11 9 8 7 6 6 4 4 4 3 3 2 1 1 360 359 358 357 356 355 355 355 354 354 354 354 353 353 352 351 351 352 352 353 353 353 352 352 352 350 349 348 348 349 348 340 335 335 334 333 332
81 79 77 75 72 71 69 68 68 67 65 65 59 45 31 26 25 23 25 26 26 24 20 19 19 20 20 19 17 16 15 14 14 12 11 10 9 8 7 6 5 4 3 3 3 2 2 1 360 359 358 358 356 355 354 354 354 354 354 354 354 354 353 353 353 352 351 353 354 353 353 353 352 353 353 351 350 348 346 348 349 342 337 337 336 335 334
82 79 77 74 71 68 66 63 60 59 58 55 48 35 25 25 24 21 20 22 23 21 17 16 19 19 18 17 16 14 13 12 11 11 10 9 8 7 6 5 4 4 3 2 2 1 1 359 358 357 357 356 354 354 354 354 354 354 354 354 354 354 354 354 354 353 352 353 354 353 352 353 353 353 353 351 351 348 345 346 348 344 340 338 336 335 335
80 76 73 70 66 62 59 56 52 49 46 42 35 27 21 22 20 17 17 19 20 18 14 14 17 18 16 15 14 12 11 10 9 9 8 7 7 6 5 4 3 3 3 2 1 1 360 359 357 356 355 355 354 354 354 354 354 354 354 354 354 355 355 354 354 354 353 353 354 353 353 354 354 354 353 351 349 348 346 346 347 344 341 338 336 335 336
73 69 65 62 58 54 51 48 43 38 33 29 25 19 17 17 15 13 14 16 16 14 12 13 15 15 14 13 11 10 9 8 7 7 6 5 5 5 4 3 3 3 3 2 1 0 359 359 358 356 356 356 355 355 354 354 354 354 354 354 354 355 356 355 354 355 354 354 355 355 354 354 354 353 353 351 349 347 346 347 348 345 341 339 337 337 336
65 61 58 56 52 46 42 38 33 28 23 19 17 14 13 12 9 10 12 13 12 11 10 12 14 13 11 10 9 8 7 6 5 4 4 4 3 4 3 3 3 3 3 2 2 0 359 358 358 357 356 356 355 355 354 354 353 354 354 354 355 355 356 355 355 355 355 354 355 356 355 353 353 353 353 352 351 349 347 346 347 346 343 340 338 338 337
59 55 53 51 46 40 35 30 26 20 15 12 10 9 8 6 5 9 10 9 9 8 8 11 11 10 9 7 6 5 4 4 3 2 3 3 2 3 3 2 3 3 2 2 1 0 359 358 357 357 356 356 355 355 354 354 353 354 354 354 355 355 356 356 355 355 355 355 356 357 355 354 354 353 353 352 351 350 348 346 346 344 343 341 340 339 339
49 45 43 43 38 34 30 24 20 15 9 6 5 4 3 1 3 7 7 6 5 5 7 9 9 8 7 5 4 3 2 1 1 0 1 1 1 1 2 2 2 2 2 1 0 360 359 358 358 357 356 356 355 355 354 354 354 354 354 354 354 355 356 356 355 356 355 355 356 357 356 355 355 354 353 352 351 349 348 347 345 344 343 343 342 341 341
31 30 31 33 30 26 24 21 16 12 7 3 3 1 359 358 1 4 3 2 2 3 5 7 6 5 4 3 1 1 1 359 359 359 359 360 360 0 1 2 2 1 1 0 360 360 359 359 358 357 357 356 356 355 354 354 354 354 354 354 354 355 356 356 356 356 356 356 357 358 356 355 355 354 354 353 351 348 347 346 346 345 344 344 343 343 342
15 11 12 18 19 15 16 17 12 8 5 3 1 360 357 357 358 359 359 359 359 2 4 4 4 4 2 1 360 360 358 358 357 357 357 358 359 359 360 1 1 0 360 360 359 360 359 359 358 358 357 357 356 355 355 354 355 355 354 354 355 355 356 357 357 356 357 357 357 358 357 354 354 354 353 353 352 350 348 347 346 346 345 345 345 344 343
6 1 355 358 1 360 2 6 4 1 1 0 359 358 356 354 353 354 356 356 358 360 1 1 2 2 0 359 358 357 356 356 356 356 357 358 358 358 359 360 359 359 359 359 359 360 359 359 358 358 358 357 356 355 355 354 354 355 354 354 355 355 356 357 357 357 358 357 356 357 356 355 355 355 353 353 353 351 350 349 348 347 346 346 346 345 344
354 353 346 341 343 342 344 349 352 353 355 356 356 355 351 349 350 352 354 356 356 357 357 359 1 0 358 357 356 356 355 355 355 356 357 358 358 358 358 359 359 359 359 359 359 359 359 358 358 358 358 358 356 355 355 354 354 355 355 355 355 355 355 356 357 357 358 357 356 357 356 355 355 356 355 354 354 353 351 350 349 349 348 347 346 346 345
341 342 339 333 329 326 328 333 339 344 348 350 350 350 348 347 349 350 351 353 353 354 356 358 358 357 356 356 355 354 355 355 355 356 357 357 357 357 357 358 358 358 358 358 358 359 358 358 358 357 358 358 356 355 355 355 354 354 354 354 355 355 355 356 356 356 357 357 356 357 357 356 355 356 356 355 355 354 353 351 351 351 350 349 348 347 346
328 329 329 325 321 318 318 322 329 335 341 344 345 345 345 346 346 347 348 350 350 352 355 356 356 356 355 355 354 354 355 355 355 356 357 356 356 356 356 357 358 358 358 358 358 358 358 357 357 357 358 358 357 355 355 354 354 354 354 354 355 354 354 355 356 356 357 357 356 356 357 357 356 356 356 356 356 356 354 353 352 352 351 350 349 348 347
316 317 317 315 313 311 311 315 321 329 334 337 339 341 342 343 343 345 346 347 347 350 353 354 354 355 355 354 354 354 355 355 355 355 355 355 355 355 355 356 358 358 358 357 357 357 357 357 357 357 358 358 357 356 355 354 354 354 354 354 354 354 354 354 355 356 356 356 356 356 357 358 357 357 357 357 356 356 355 354 354 353 352 351 351 350 349
307 308 309 308 305 302 302 307 314 322 327 330 333 336 338 340 342 343 343 343 344 348 351 352 353 354 355 355 354 354 355 355 355 354 354 354 355 354 355 356 357 357 357 357 357 357 357 357 357 357 357 358 357 356 355 355 354 353 354 354 353 353 354 354 355 356 356 357 356 356 356 357 358 358 358 357 357 356 355 355 354 354 353 352 352 351 350
303 303 303 302 299 294 293 298 306 314 320 324 328 331 335 339 340 339 339 339 342 346 349 351 353 354 355 355 355 354 355 354 354 353 354 354 354 354 354 355 356 356 356 356 356 356 356 356 356 356 357 358 358 357 356 355 354 353 353 353 353 354 354 355 356 356 357 357 357 356 356 357 358 358 358 357 357 356 356 355 355 354 354 353 352 352 351
302 300 298 296 292 287 284 287 296 308 315 318 323 328 333 336 335 334 335 336 339 344 348 350 352 353 354 354 355 355 354 353 353 353 353 353 353 353 353 354 355 355 356 356 356 355 356 356 356 356 357 358 358 357 356 355 355 354 353 353 354 355 355 356 356 357 357 357 357 357 357 357 358 358 358 357 357 356 356 356 356 355 354 354 353 352 351
303 298 293 289 284 281 278 279 290 305 311 315 320 325 328 330 330 331 332 334 337 343 347 350 352 353 354 354 354 355 354 352 352 353 353 353 352 352 352 353 354 354 355 356 356 355 356 356 356 356 357 358 358 357 357 356 355 355 354 353 354 355 356 356 356 356 357 357 357 357 357 357 357 357 357 357 357 357 357 357 357 356 355 355 354 353 352
305 295 286 280 276 274 274 278 293 305 309 313 317 321 323 326 328 330 331 331 335 342 347 350 351 352 353 353 354 354 353 352 353 353 352 352 352 351 351 352 353 354 355 355 355 355 355 356 356 357 357 358 358 358 357 357 356 355 354 354 354 355 356 356 356 356 356 357 357 357 357 356 356 357 357 358 358 358 358 357 357 357 356 356 355 354 353
311 296 278 269 268 268 270 279 293 302 305 309 314 318 321 325 327 329 329 328 333 341 347 349 350 351 352 353 354 354 354 354 353 353 352 351 350 350 350 351 352 353 354 355 355 355 355 356 356 357 357 358 358 358 357 356 356 355 354 354 354 355 356 356 356 356 356 356 357 357 357 357 357 357 358 358 359 359 358 358 358 357 357 356 356 355 354
317 301 275 261 261 263 269 281 293 300 304 310 315 319 322 324 325 326 325 326 332 341 346 348 349 350 352 353 354 354 354 354 352 351 350 350 349 349 349 350 352 353 354 354 354 355 355 356 356 357 357 357 357 357 357 356 355 355 355 354 354 355 356 356 356 356 356 356 356 357 357 357 357 358 358 358 359 359 358 358 358 358 358 357 357 356 355
319 306 284 267 261 264 274 286 296 301 306 312 316 319 322 322 323 323 322 325 333 341 346 347 348 350 352 354 354 354 354 353 351 350 349 349 349 349 349 350 351 352 353 354 354 354 356 356 357 357 357 357 357 357 357 356 355 355 355 354 355 355 355 355 355 355 356 356 357 357 357 357 357 357 357 358 359 359 359 358 358 358 358 358 357 357 356
317 309 295 282 276 277 284 291 297 302 308 313 317 319 320 320 320 321 321 325 333 340 344 347 348 351 353 354 353 353 353 351 350 349 349 348 348 348 349 349 350 352 353 353 353 355 356 357 357 357 357 357 356 356 357 356 356 355 354 354 355 355 355 355 355 355 356 357 357 357 357 357 357 357 357 358 359 359 359 359 359 359 359 359 358 358 357
312 309 303 295 290 289 291 296 301 305 309 313 316 317 317 317 317 317 319 325 332 339 343 345 348 351 353 353 352 352 351 350 349 349 348 348 348 348 349 349 350 351 352 352 353 355 356 356 356 357 357 356 356 356 357 357 356 355 354 354 355 355 355 355 355 355 356 357 357 358 357 357 357 356 357 358 359 360 360 359 359 359 359 359 359 359 358
305 304 302 301 298 296 296 300 303 306 310 313 315 315 314 314 314 315 319 325 332 338 341 345 348 352 353 353 353 352 350 349 349 349 348 348 348 348 349 349 349 350 351 351 352 354 355 356 356 356 356 356 356 356 357 357 356 355 355 354 355 355 355 355 355 355 356 356 357 357 357 357 357 357 357 358 360 1 0 360 359 359 359 359 359 359 358
302 299 296 296 295 296 298 302 305 307 310 313 314 312 310 311 312 314 319 325 331 337 341 345 349 351 352 352 351 350 349 349 349 348 348 348 348 348 348 348 348 349 349 350 352 353 355 355 356 356 356 356 356 356 356 356 356 355 355 355 355 355 355 354 354 355 355 356 356 357 357 358 358 357 358 359 1 1 0 0 360 360 360 360 360 359 359
301 299 295 293 292 293 297 302 305 307 310 312 310 307 307 308 310 314 319 325 331 337 342 345 349 350 350 350 350 350 349 349 348 347 347 347 347 348 348 348 348 348 348 349 351 353 354 355 355 355 356 356 356 356 356 356 356 356 355 355 355 355 355 354 355 355 355 356 357 358 358 358 358 358 358 359 1 1 1 0 0 360 360 360 360 360 359
300 300 296 294 292 292 296 301 304 306 308 308 305 303 305 307 310 314 319 325 332 338 342 344 346 348 348 348 349 349 349 348 347 347 347 347 347 348 347 347 347 347 347 349 351 353 354 354 355 355 355 356 356 355 355 356 356 356 355 355 355 355 355 355 355 355 356 356 357 358 358 358 358 357 358 359 0 1 1 1 0 360 0 0 0 0 360
300 300 297 294 292 291 295 299 302 304 305 303 300 300 303 305 309 314 320 326 332 337 340 342 344 346 346 347 347 348 348 347 347 347 346 347 347 347 347 347 347 347 347 349 351 352 353 354 354 354 355 356 355 355 355 356 356 356 355 355 355 355 355 355 355 355 356 356 357 358 358 358 357 357 358 359 360 1 1 1 1 0 0 0 1 1 0
300 300 298 294 290 290 293 297 299 301 300 298 297 298 301 304 309 315 320 325 331 335 338 339 341 343 345 345 346 347 347 347 347 346 346 346 347 347 347 347 347 347 348 349 350 351 352 353 354 354 355 355 355 355 355 355 355 355 355 355 355 355 355 355 355 355 356 356 357 357 358 358 357 357 357 358 360 0 1 1 1 0 0 1 1 1 1
301 300 298 294 289 287 288 291 294 296 296 295 295 296 300 304 309 314 319 324 329 333 336 337 339 342 343 343 344 345 346 346 346 346 346 346 347 347 347 346 346 347 348 349 350 351 352 352 353 354 354 355 355 355 355 355 355 355 354 354 354 355 355 355 355 355 356 356 357 357 358 357 357 357 357 358 359 0 0 0 1 0 1 1 1 1 1
299 299 297 294 289 285 284 286 290 291 291 291 292 295 299 305 310 314 318 323 328 332 334 336 338 340 341 342 342 343 344 345 346 346 345 346 346 346 346 346 346 347 347 348 349 350 351 352 352 353 354 354 354 354 354 354 354 354 354 354 354 355 355 355 355 355 356 356 356 357 357 357 357 357 357 357 358 360 0 1 1 1 1 1 1 1 1
296 295 293 291 287 283 280 281 284 286 286 288 291 295 300 306 309 313 318 323 327 330 333 334 336 338 339 340 341 342 343 345 346 345 345 345 345 345 345 345 346 346 347 348 349 350 350 351 352 352 353 353 353 353 353 353 353 353 353 354 354 354 355 355 355 355 356 356 356 356 357 357 357 357 357 357 358 359 360 0 1 1 1 1 2 2 2
293 292 290 288 285 282 280 280 282 283 284 287 290 294 299 303 307 312 317 322 326 329 331 333 334 336 337 338 340 341 342 343 345 344 343 344 344 344 344 345 345 346 347 348 348 349 350 350 351 351 352 352 352 352 352 353 353 353 353 353 354 354 354 355 355 355 356 356 356 356 356 356 356 356 357 357 357 358 359 360 0 1 1 1 2 2 2
293 291 289 287 284 281 280 280 281 282 283 286 289 293 298 303 308 313 317 321 324 327 329 331 333 334 335 337 338 339 341 342 343 342 342 342 342 343 343 344 345 346 347 347 348 348 349 349 350 351 351 351 351 351 352 352 352 352 352 353 353 354 354 355 355 355 355 356 356 356 356 356 356 356 356 357 357 358 359 360 0 1 1 1 1 2 2
293 292 291 288 285 283 283 283 283 283 284 286 290 294 299 304 309 313 317 320 323 325 327 328 331 333 334 335 337 338 339 340 340 340 340 341 341 342 343 344 345 346 346 347 347 347 348 348 349 349 350 350 350 350 351 351 352 352 352 352 353 354 354 355 355 355 355 355 356 356 356 356 356 356 356 356 357 358 358 359 360 1 1 1 1 1 2
296 295 293 290 287 286 285 284 284 285 286 289 293 297 301 305 309 312 315 318 320 322 324 326 328 330 332 334 336 337 337 337 338 339 340 341 341 341 342 343 344 345 345 346 346 346 347 348 348 348 348 349 349 350 350 351 351 351 351 352 353 354 354 355 355 355 355 355 356 356 356 356 356 356 356 356 356 357 358 359 360 0 0 0 1 1 1
301 298 296 294 292 291 289 286 286 287 288 291 295 299 302 304 307 310 312 315 317 319 322 324 326 328 330 332 334 335 336 336 337 338 339 340 340 341 342 343 344 344 345 345 346 346 346 346 347 347 347 348 348 349 350 350 350 351 351 352 353 354 355 355 355 355 355 355 355 355 356 356 356 356 356 356 356 357 358 359 360 360 0 0 0 1 1
307 303 300 298 297 295 292 290 289 289 290 293 296 299 301 303 306 308 310 312 315 317 320 322 324 327 329 330 332 334 335 336 336 338 339 339 340 341 341 342 343 344 345 345 345 345 345 345 346 346 346 347 347 348 349 349 350 350 350 351 352 354 355 355 355 355 355 355 355 355 355 355 355 355 356 356 356 357 358 358 359 359 360 360 0 0 1
310 307 305 304 303 301 299 296 294 293 293 295 297 299 300 302 304 307 309 311 314 316 319 322 324 326 328 329 331 333 335 336 336 336 338 339 340 340 341 342 343 343 344 344 344 344 344 344 345 345 345 346 346 347 348 349 349 349 350 351 352 353 354 354 355 355 355 355 355 355 355 355 355 355 355 356 356 356 357 357 358 359 360 360 360 0 1
Height
5819 5820 5821 5822 5823 5824 5825 5826 5827 5827 5828 5829 5829 5830 5830 5830 5830 5829 5829 5829 5829 5828 5827 5826 5825 5825 5824 5823 5822 5820 5819 5817 5815 5813 5811 5809 5807 5805 5802 5800 5797 5794 5791 5788 5785 5782 5778 5775 5771 5767 5764 5760 5755 5751 5747 5742 5738 5733 5728 5723 5718 5712 5707 5702 5698 5693 5688 5682 5675 5668 5661 5656 5650 5643 5636 5629 5621 5615 5608 5599 5591 5583 5575 5569 5560 5548 5544
5822 5823 5824 5825 5825 5826 5827 5828 5828 5829 5830 5830 5830 5831 5831 5831 5830 5830 5830 5830 5829 5828 5828 5827 5826 5825 5824 5823 5822 5821 5819 5817 5815 5813 5811 5809 5807 5805 5802 5799 5797 5794 5791 5787 5784 5780 5777 5774 5770 5767 5763 5758 5754 5750 5745 5741 5736 5731 5726 5720 5715 5709 5702 5697 5692 5687 5682 5678 5673 5667 5661 5654 5647 5640 5632 5624 5617 5609 5602 5595 5587 5578 5570 5562 5551 5542 5538
5824 5825 5826 5826 5827 5828 5829 5829 5830 5830 5831 5831 5831 5832 5832 5832 5831 5831 5831 5830 5829 5829 5829 5828 5827 5826 5825 5824 5822 5821 5819 5817 5815 5813 5811 5809 5806 5804 5801 5799 5796 5793 5790 5787 5783 5780 5777 5773 5769 5766 5762 5757 5753 5749 5744 5739 5734 5729 5723 5717 5712 5706 5699 5693 5686 5679 5671 5666 5662 5657 5653 5648 5642 5635 5627 5619 5613 5605 5597 5589 5581 5572 5564 5556 5546 5533 5526
5826 5827 5827 5828 5829 5829 5830 5831 5831 5832 5832 5832 5832 5833 5832 5833 5832 5832 5832 5831 5830 5830 5830 5828 5828 5827 5826 5824 5823 5821 5819 5817 5815 5813 5811 5808 5806 5803 5801 5798 5795 5793 5789 5786 5783 5780 5776 5772 5768 5764 5760 5756 5751 5747 5742 5737 5732 5727 5721 5715 5709 5703 5697 5690 5685 5678 5669 5662 5658 5651 5645 5640 5635 5630 5623 5615 5608 5601 5593 5584 5576 5567 5556 5550 5544 5529 5516
5828 5828 5829 5830 5830 5831 5832 5832 5832 5833 5833 5833 5833 5833 5833 5834 5833 5833 5832 5832 5831 5831 5830 5829 5828 5827 5826 5825 5823 5820 5819 5817 5815 5813 5810 5808 5805 5803 5800 5798 5795 5792 5789 5786 5783 5779 5775 5771 5767 5762 5758 5754 5750 5745 5740 5735 5730 5724 5719 5713 5707 5701 5695 5688 5683 5678 5668 5660 5656 5649 5642 5636 5629 5624 5618 5611 5603 5596 5589 5581 5573 5563 5550 5541 5539 5529 5514
5830 5830 5831 5831 5832 5832 5833 5833 5834 5834 5834 5834 5834 5834 5834 5835 5834 5834 5833 5833 5832 5832 5831 5830 5829 5828 5826 5824 5822 5820 5819 5816 5814 5812 5810 5807 5805 5802 5800 5797 5794 5791 5788 5785 5781 5778 5774 5770 5766 5762 5757 5753 5748 5743 5738 5733 5728 5722 5716 5710 5704 5698 5692 5685 5681 5677 5668 5659 5653 5647 5640 5634 5627 5620 5612 5605 5597 5590 5584 5577 5569 5560 5548 5535 5529 5521 5510
5832 5832 5832 5833 5833 5834 5834 5834 5835 5835 5835 5835 5835 5835 5836 5836 5835 5835 5834 5834 5833 5833 5832 5831 5829 5828 5826 5824 5822 5820 5818 5816 5814 5812 5810 5807 5804 5802 5799 5796 5793 5790 5787 5784 5780 5776 5773 5769 5765 5761 5756 5751 5746 5741 5736 5731 5726 5720 5714 5707 5701 5695 5689 5682 5677 5673 5666 5657 5651 5645 5637 5631 5625 5618 5610 5602 5595 5587 5580 5573 5565 5555 5544 5531 5520 5511 5503
5834 5834 5834 5834 5835 5835 5835 5835 5836 5836 5836 5837 5837 5837 5837 5836 5836 5836 5835 5834 5834 5833 5832 5831 5829 5828 5826 5824 5822 5820 5818 5816 5814 5811 5809 5806 5804 5801 5798 5796 5793 5789 5786 5782 5779 5775 5771 5767 5763 5758 5754 5749 5744 5739 5733 5728 5723 5717 5711 5705 5699 5692 5687 5679 5672 5669 5664 5655 5649 5643 5634 5627 5620 5614 5608 5600 5593 5584 5575 5567 5559 5547 5536 5526 5514 5504 5498
5836 5836 5836 5836 5836 5836 5837 5837 5837 5837 5838 5838 5838 5838 5838 5837 5836 5836 5836 5835 5835 5834 5832 5831 5829 5827 5826 5824 5822 5820 5818 5815 5813 5811 5809 5806 5803 5801 5798 5795 5792 5788 5785 5781 5778 5774 5769 5765 5760 5756 5751 5746 5741 5736 5730 5725 5720 5714 5708 5702 5696 5689 5683 5677 5669 5664 5659 5651 5644 5638 5632 5625 5618 5611 5604 5597 5588 5578 5568 5559 5550 5537 5524 5515 5506 5497 5489
5838 5838 5838 5838 5838 5838 5838 5838 5838 5838 5838 5839 5839 5839 5838 5838 5837 5837 5836 5836 5835 5834 5833 5831 5829 5827 5826 5824 5822 5819 5817 5815 5813 5811 5808 5805 5803 5800 5797 5794 5791 5788 5784 5780 5776 5772 5768 5763 5758 5754 5749 5744 5738 5733 5728 5722 5717 5711 5705 5699 5693 5685 5679 5672 5664 5658 5654 5647 5638 5631 5625 5618 5612 5604 5595 5587 5580 5572 5563 5554 5545 5534 5520 5508 5498 5491 5483
5840 5840 5840 5840 5840 5840 5840 5840 5840 5840 5839 5839 5839 5839 5839 5838 5838 5837 5837 5836 5835 5834 5833 5831 5829 5827 5825 5823 5821 5819 5817 5815 5812 5810 5807 5805 5802 5799 5796 5793 5790 5787 5783 5779 5775 5771 5766 5762 5757 5752 5747 5742 5737 5731 5726 5720 5714 5708 5702 5695 5689 5682 5675 5668 5659 5651 5646 5640 5634 5627 5619 5610 5602 5595 5587 5579 5571 5564 5555 5546 5537 5528 5519 5509 5499 5490 5481
5842 5842 5842 5842 5842 5842 5841 5841 5841 5841 5840 5840 5840 5840 5840 5839 5839 5838 5837 5836 5835 5834 5833 5831 5829 5827 5825 5823 5821 5819 5817 5814 5812 5809 5807 5804 5801 5798 5795 5792 5789 5785 5782 5778 5774 5770 5766 5761 5756 5752 5747 5741 5735 5730 5725 5719 5713 5707 5700 5693 5686 5679 5671 5664 5656 5646 5639 5632 5624 5616 5609 5602 5594 5588 5581 5573 5564 5555 5548 5543 5535 5523 5512 5504 5495 5484 5473
5844 5843 5843 5843 5843 5843 5843 5842 5842 5842 5841 5841 5840 5840 5840 5839 5839 5838 5837 5836 5835 5834 5832 5831 5829 5827 5825 5823 5821 5818 5816 5814 5811 5809 5806 5803 5800 5797 5795 5791 5788 5785 5781 5777 5773 5769 5765 5761 5756 5751 5747 5741 5736 5730 5724 5718 5711 5704 5697 5689 5682 5674 5667 5660 5652 5644 5635 5628 5619 5609 5602 5598 5591 5584 5576 5566 5557 5546 5535 5530 5528 5517 5502 5491 5482 5472 5462
5845 5845 5845 5844 5844 5844 5844 5843 5843 5842 5842 5841 5841 5840 5840 5840 5839 5838 5837 5836 5835 5834 5832 5831 5829 5826 5824 5822 5820 5818 5816 5813 5810 5808 5805 5802 5799 5796 5794 5790 5787 5784 5780 5776 5772 5768 5764 5760 5756 5751 5747 5742 5737 5730 5723 5716 5709 5701 5694 5686 5679 5671 5662 5655 5647 5639 5629 5621 5616 5609 5601 5593 5584 5575 5566 5557 5548 5539 5525 5514 5511 5504 5492 5480 5470 5462 5454
5846 5846 5845 5845 5845 5845 5844 5844 5843 5843 5842 5841 5841 5840 5840 5840 5839 5838 5837 5836 5835 5833 5832 5830 5828 5826 5824 5822 5820 5817 5815 5812 5810 5807 5804 5801 5799 5796 5792 5789 5786 5783 5779 5775 5771 5767 5763 5758 5754 5749 5745 5740 5734 5727 5720 5713 5706 5698 5690 5683 5676 5668 5660 5650 5641 5634 5625 5615 5607 5599 5590 5582 5573 5564 5557 5548 5540 5534 5524 5512 5503 5495 5485 5475 5465 5455 5447
5846 5846 5846 5845 5845 5845 5844 5844 5843 5843 5842 5842 5841 5841 5840 5839 5839 5838 5837 5836 5834 5833 5832 5830 5828 5826 5823 5821 5819 5817 5814 5812 5809 5806 5803 5800 5798 5795 5791 5788 5785 5781 5778 5774 5769 5765 5760 5756 5751 5745 5740 5734 5729 5723 5716 5710 5703 5696 5688 5680 5672 5664 5656 5647 5638 5629 5620 5611 5601 5591 5581 5574 5567 5560 5552 5544 5535 5527 5519 5510 5502 5492 5480 5469 5460 5450 5440
5847 5846 5846 5846 5845 5845 5845 5844 5843 5843 5842 5842 5841 5841 5840 5839 5839 5838 5837 5835 5834 5833 5831 5829 5827 5825 5823 5821 5818 5816 5813 5811 5808 5805 5802 5799 5796 5794 5791 5787 5784 5780 5777 5773 5768 5763 5758 5753 5749 5743 5737 5732 5726 5720 5713 5706 5700 5693 5686 5677 5669 5660 5652 5644 5636 5627 5618 5609 5601 5592 5581 5572 5564 5558 5551 5544 5535 5525 5513 5502 5493 5484 5475 5465 5455 5445 5435
5847 5846 5846 5846 5845 5845 5845 5844 5843 5843 5842 5842 5841 5841 5840 5839 5838 5837 5836 5835 5834 5832 5831 5829 5826 5824 5822 5820 5817 5815 5812 5810 5807 5804 5801 5798 5795 5792 5790 5786 5783 5779 5775 5771 5767 5762 5757 5752 5747 5741 5735 5729 5723 5717 5710 5703 5696 5688 5681 5674 5666 5659 5650 5641 5632 5624 5615 5607 5599 5590 5582 5573 5564 5554 5545 5538 5531 5522 5510 5496 5484 5476 5470 5462 5452 5441 5430
5847 5846 5846 5846 5845 5845 5845 5844 5844 5843 5842 5842 5841 5840 5840 5839 5838 5837 5836 5834 5833 5832 5830 5828 5826 5824 5821 5819 5817 5814 5811 5808 5806 5803 5800 5797 5794 5791 5789 5785 5781 5778 5773 5769 5765 5760 5755 5750 5745 5740 5734 5728 5722 5715 5708 5700 5692 5685 5677 5670 5663 5655 5647 5638 5628 5620 5611 5602 5595 5587 5578 5570 5561 5552 5543 5533 5522 5512 5503 5494 5485 5477 5467 5457 5447 5436 5424
5847 5846 5846 5846 5845 5845 5844 5844 5844 5843 5842 5842 5841 5840 5839 5838 5837 5836 5835 5834 5833 5831 5829 5827 5825 5823 5821 5818 5816 5813 5810 5807 5804 5801 5799 5796 5793 5790 5787 5784 5780 5776 5772 5768 5763 5759 5754 5749 5744 5738 5732 5726 5720 5714 5706 5698 5690 5682 5674 5665 5657 5650 5643 5634 5624 5616 5607 5597 5588 5579 5569 5561 5555 5547 5539 5529 5518 5507 5499 5491 5484 5475 5463 5452 5441 5431 5419
5847 5846 5846 5846 5845 5845 5844 5844 5843 5843 5842 5841 5841 5840 5839 5838 5837 5836 5835 5834 5832 5830 5828 5826 5824 5822 5820 5817 5815 5812 5809 5806 5803 5800 5797 5794 5791 5788 5785 5782 5778 5775 5770 5766 5762 5758 5753 5747 5742 5736 5730 5724 5718 5711 5705 5697 5690 5681 5673 5665 5656 5647 5640 5631 5621 5611 5601 5592 5584 5578 5570 5561 5553 5544 5535 5528 5521 5512 5501 5490 5479 5469 5458 5446 5435 5425 5414
5847 5846 5846 5845 5845 5844 5844 5843 5843 5842 5842 5841 5840 5839 5838 5837 5836 5835 5834 5833 5831 5829 5828 5826 5824 5821 5819 5816 5814 5811 5808 5805 5802 5800 5797 5794 5791 5787 5784 5781 5777 5773 5769 5764 5760 5755 5750 5745 5740 5734 5728 5723 5717 5710 5702 5695 5688 5681 5672 5664 5655 5646 5638 5631 5622 5613 5603 5592 5586 5581 5574 5565 5557 5548 5538 5530 5523 5513 5502 5489 5476 5465 5453 5441 5429 5419 5409
5846 5846 5845 5845 5844 5844 5843 5843 5842 5842 5841 5840 5840 5839 5838 5837 5836 5835 5833 5832 5830 5829 5827 5825 5823 5821 5818 5815 5813 5810 5807 5804 5802 5799 5796 5793 5790 5787 5783 5779 5775 5771 5767 5763 5759 5754 5749 5743 5738 5732 5726 5721 5715 5709 5702 5695 5687 5679 5670 5661 5653 5646 5638 5631 5623 5617 5611 5602 5591 5583 5576 5567 5559 5552 5541 5531 5521 5510 5498 5487 5475 5462 5450 5438 5426 5414 5403
5846 5845 5845 5844 5844 5843 5842 5842 5842 5841 5841 5840 5839 5838 5837 5836 5835 5834 5833 5831 5830 5828 5826 5824 5822 5820 5817 5814 5811 5809 5806 5803 5800 5798 5795 5792 5789 5785 5782 5778 5774 5770 5766 5762 5757 5753 5747 5742 5736 5730 5724 5718 5712 5705 5699 5692 5684 5678 5671 5663 5655 5647 5639 5632 5624 5615 5608 5600 5589 5580 5571 5561 5553 5546 5539 5530 5521 5510 5497 5484 5472 5461 5448 5435 5422 5411 5400
5845 5845 5844 5843 5843 5842 5842 5841 5841 5840 5840 5839 5838 5837 5836 5835 5834 5833 5832 5830 5829 5827 5825 5823 5821 5819 5816 5813 5810 5808 5805 5802 5799 5796 5794 5791 5787 5784 5780 5777 5773 5769 5765 5761 5756 5751 5746 5740 5735 5729 5723 5716 5710 5703 5696 5689 5682 5675 5668 5660 5652 5643 5635 5628 5621 5612 5604 5597 5591 5585 5578 5567 5555 5545 5535 5526 5516 5506 5496 5483 5470 5458 5447 5435 5422 5409 5396
5844 5844 5843 5842 5842 5841 5841 5840 5840 5839 5839 5838 5837 5836 5835 5834 5833 5832 5831 5829 5828 5826 5824 5822 5820 5818 5815 5812 5809 5806 5804 5801 5798 5795 5792 5789 5786 5782 5779 5775 5772 5768 5764 5760 5755 5750 5745 5739 5733 5727 5721 5714 5708 5701 5694 5687 5679 5671 5664 5656 5649 5642 5633 5624 5618 5612 5605 5597 5589 5581 5575 5568 5557 5545 5532 5520 5509 5500 5490 5480 5468 5455 5443 5432 5421 5408 5394
5843 5843 5842 5841 5841 5840 5839 5839 5839 5838 5838 5837 5836 5835 5834 5833 5832 5831 5830 5828 5827 5825 5824 5822 5819 5817 5814 5811 5808 5805 5802 5800 5797 5794 5791 5788 5784 5781 5778 5774 5770 5767 5763 5758 5753 5748 5743 5737 5732 5726 5720 5713 5707 5701 5693 5686 5678 5671 5664 5657 5650 5642 5634 5624 5615 5605 5596 5586 5576 5564 5556 5550 5543 5534 5525 5515 5506 5496 5486 5475 5463 5451 5438 5425 5414 5403 5392
5842 5841 5841 5840 5839 5839 5838 5838 5837 5837 5836 5836 5835 5834 5833 5832 5831 5830 5828 5827 5826 5824 5822 5820 5818 5815 5813 5810 5807 5804 5801 5798 5796 5793 5790 5787 5783 5780 5776 5773 5769 5765 5761 5756 5752 5747 5742 5737 5731 5725 5719 5712 5706 5700 5693 5686 5679 5671 5662 5655 5647 5638 5629 5619 5609 5598 5588 5580 5572 5563 5552 5543 5536 5529 5522 5513 5504 5494 5482 5470 5458 5446 5433 5419 5406 5395 5384
5840 5840 5839 5838 5838 5837 5837 5836 5836 5836 5835 5834 5834 5833 5832 5831 5830 5829 5827 5826 5825 5823 5821 5819 5817 5814 5812 5809 5806 5803 5800 5797 5795 5792 5789 5785 5782 5778 5775 5772 5768 5764 5760 5755 5751 5746 5741 5736 5730 5724 5718 5712 5705 5699 5693 5685 5677 5669 5661 5652 5643 5634 5624 5615 5606 5598 5589 5581 5572 5564 5554 5545 5536 5527 5518 5509 5500 5490 5480 5468 5455 5442 5429 5417 5405 5393 5381
5838 5837 5836 5836 5836 5835 5835 5835 5835 5834 5834 5833 5832 5831 5830 5830 5828 5827 5826 5825 5824 5822 5820 5818 5816 5813 5810 5808 5805 5802 5799 5796 5794 5790 5787 5784 5780 5777 5774 5770 5767 5763 5758 5754 5749 5744 5739 5735 5729 5723 5717 5711 5705 5698 5691 5684 5676 5668 5659 5650 5642 5633 5624 5615 5606 5598 5590 5581 5571 5562 5553 5544 5537 5530 5522 5513 5503 5490 5477 5465 5453 5441 5428 5416 5404 5392 5380
5835 5834 5834 5833 5833 5833 5833 5833 5833 5833 5832 5832 5831 5830 5829 5828 5827 5826 5825 5824 5822 5821 5819 5817 5814 5812 5809 5807 5804 5801 5799 5795 5792 5789 5785 5782 5779 5776 5773 5769 5766 5761 5757 5752 5748 5743 5738 5733 5728 5721 5715 5709 5703 5697 5690 5683 5676 5667 5658 5649 5641 5633 5624 5616 5606 5597 5589 5582 5575 5567 5559 5549 5541 5533 5524 5514 5501 5489 5476 5465 5453 5441 5429 5416 5404 5391 5380
5832 5831 5831 5831 5831 5832 5832 5832 5832 5831 5831 5830 5830 5829 5828 5827 5826 5825 5823 5822 5821 5819 5817 5815 5813 5811 5808 5805 5802 5800 5797 5794 5790 5787 5784 5781 5778 5775 5771 5768 5764 5760 5755 5751 5746 5742 5737 5731 5726 5720 5714 5708 5702 5696 5689 5682 5674 5666 5657 5648 5640 5632 5623 5615 5606 5597 5588 5580 5573 5567 5560 5550 5538 5526 5516 5506 5497 5486 5476 5465 5454 5441 5428 5416 5405 5394 5382
5831 5830 5829 5830 5830 5830 5830 5830 5830 5830 5829 5829 5828 5827 5826 5825 5824 5823 5822 5821 5819 5818 5816 5814 5811 5809 5806 5804 5801 5798 5795 5792 5789 5786 5783 5780 5777 5773 5770 5766 5762 5758 5754 5750 5745 5741 5736 5730 5725 5719 5713 5707 5701 5694 5688 5680 5673 5664 5656 5647 5639 5631 5623 5615 5606 5597 5588 5578 5567 5558 5549 5541 5532 5523 5514 5505 5495 5484 5473 5462 5452 5440 5428 5415 5404 5392 5381
5831 5830 5829 5829 5829 5829 5829 5829 5829 5828 5828 5827 5826 5825 5824 5823 5822 5821 5820 5819 5818 5816 5814 5812 5810 5807 5804 5802 5799 5796 5793 5791 5788 5785 5782 5778 5775 5772 5768 5765 5761 5757 5752 5748 5744 5739 5734 5729 5723 5718 5712 5706 5700 5693 5686 5679 5672 5664 5656 5648 5639 5632 5624 5617 5608 5599 5589 5579 5568 5558 5548 5538 5530 5522 5514 5505 5494 5483 5472 5460 5448 5437 5426 5414 5401 5389 5377
5830 5829 5829 5828 5828 5828 5828 5828 5827 5827 5827 5826 5825 5824 5823 5822 5821 5820 5819 5817 5816 5815 5813 5811 5808 5806 5803 5800 5798 5795 5792 5789 5786 5783 5780 5777 5774 5770 5767 5763 5759 5755 5751 5747 5742 5738 5732 5727 5722 5716 5710 5704 5698 5692 5685 5678 5671 5663 5656 5648 5641 5633 5626 5618 5609 5599 5589 5579 5568 5558 5547 5537 5529 5521 5513 5504 5494 5483 5472 5460 5447 5435 5423 5411 5398 5385 5373
5830 5829 5828 5827 5827 5827 5827 5826 5826 5826 5825 5824 5823 5822 5821 5820 5819 5818 5817 5816 5814 5813 5811 5809 5807 5805 5802 5799 5796 5793 5790 5787 5785 5781 5778 5775 5772 5769 5765 5762 5758 5754 5750 5745 5740 5736 5731 5726 5720 5715 5709 5703 5696 5690 5683 5676 5669 5662 5654 5646 5638 5630 5622 5614 5606 5598 5588 5578 5569 5560 5552 5543 5534 5524 5515 5505 5494 5482 5469 5456 5444 5431 5418 5405 5393 5381 5369
5828 5828 5827 5826 5826 5826 5825 5825 5824 5824 5823 5822 5821 5820 5819 5818 5817 5816 5815 5814 5813 5811 5809 5807 5805 5802 5800 5797 5794 5791 5789 5786 5783 5780 5777 5774 5770 5767 5764 5760 5756 5752 5748 5743 5739 5734 5729 5724 5718 5712 5707 5701 5694 5688 5681 5673 5667 5660 5652 5644 5635 5627 5619 5611 5604 5597 5590 5583 5575 5568 5559 5548 5536 5524 5513 5501 5488 5476 5464 5451 5437 5424 5412 5400 5389 5378 5367
5827 5826 5825 5825 5825 5824 5824 5823 5823 5822 5821 5820 5819 5818 5817 5816 5815 5814 5813 5812 5811 5809 5807 5805 5803 5800 5797 5795 5792 5790 5787 5784 5781 5778 5775 5772 5769 5766 5762 5759 5755 5750 5746 5741 5737 5732 5727 5722 5716 5711 5705 5699 5693 5686 5678 5671 5664 5657 5648 5639 5631 5622 5614 5606 5598 5590 5583 5576 5568 5559 5548 5538 5528 5517 5506 5495 5483 5471 5460 5448 5436 5424 5412 5400 5388 5377 5367
5825 5824 5824 5823 5823 5822 5822 5821 5821 5820 5819 5818 5817 5816 5815 5814 5814 5812 5811 5810 5809 5807 5805 5803 5801 5798 5796 5793 5791 5789 5786 5783 5780 5777 5774 5770 5767 5764 5760 5757 5753 5748 5744 5739 5735 5730 5725 5720 5714 5709 5703 5697 5691 5684 5677 5669 5661 5653 5645 5636 5627 5619 5610 5601 5592 5583 5573 5563 5553 5543 5533 5524 5516 5508 5499 5491 5481 5471 5460 5449 5437 5425 5413 5401 5389 5377 5366
5823 5822 5822 5821 5821 5820 5820 5819 5818 5818 5817 5816 5815 5814 5813 5812 5811 5811 5810 5808 5807 5805 5803 5801 5799 5797 5794 5792 5790 5787 5784 5781 5778 5775 5772 5769 5765 5762 5759 5755 5751 5746 5742 5737 5732 5728 5723 5718 5712 5707 5701 5695 5689 5682 5675 5667 5659 5651 5642 5634 5625 5616 5607 5598 5589 5580 5570 5560 5551 5542 5532 5523 5514 5505 5496 5487 5479 5470 5460 5448 5436 5424 5413 5401 5389 5378 5366
5821 5820 5820 5819 5819 5818 5817 5817 5816 5816 5815 5814 5813 5812 5811 5810 5809 5809 5808 5806 5805 5803 5802 5799 5797 5795 5792 5790 5788 5785 5782 5779 5776 5773 5770 5767 5764 5760 5757 5753 5749 5744 5740 5735 5730 5726 5721 5716 5710 5705 5699 5693 5687 5681 5673 5665 5657 5649 5641 5632 5624 5615 5606 5597 5588 5579 5570 5561 5552 5542 5533 5523 5514 5505 5495 5486 5476 5467 5458 5448 5437 5426 5414 5402 5390 5379 5367
5819 5818 5818 5817 5816 5816 5815 5815 5814 5813 5813 5812 5811 5810 5809 5808 5808 5807 5806 5804 5803 5801 5800 5797 5795 5793 5790 5788 5785 5783 5780 5777 5774 5771 5768 5765 5762 5758 5754 5750 5746 5742 5737 5733 5728 5724 5719 5713 5708 5703 5697 5691 5685 5678 5671 5663 5656 5648 5640 5631 5623 5614 5605 5596 5587 5578 5569 5560 5551 5542 5532 5523 5514 5505 5496 5487 5476 5466 5457 5448 5439 5428 5416 5403 5391 5380 5369
5816 5816 5815 5815 5814 5814 5813 5812 5812 5811 5811 5810 5809 5808 5807 5807 5806 5805 5803 5802 5801 5799 5797 5795 5793 5790 5788 5785 5783 5780 5777 5775 5772 5768 5765 5762 5759 5756 5752 5748 5744 5740 5735 5731 5726 5721 5716 5711 5706 5700 5695 5689 5682 5676 5669 5662 5654 5646 5638 5630 5621 5613 5604 5595 5585 5576 5567 5558 5549 5540 5531 5523 5514 5505 5496 5487 5479 5470 5460 5450 5439 5428 5416 5404 5393 5381 5370
5814 5814 5813 5813 5812 5811 5811 5810 5810 5809 5808 5808 5807 5806 5805 5804 5803 5802 5801 5800 5799 5797 5795 5792 5790 5788 5785 5783 5780 5777 5775 5772 5769 5766 5763 5760 5757 5753 5750 5746 5742 5737 5733 5729 5724 5719 5714 5709 5703 5698 5692 5686 5680 5674 5667 5661 5653 5645 5637 5628 5620 5611 5603 5594 5585 5576 5567 5559 5550 5541 5533 5524 5515 5506 5497 5488 5479 5471 5462 5452 5441 5430 5419 5407 5395 5382 5371
5812 5812 5811 5810 5810 5809 5808 5808 5807 5807 5806 5806 5805 5804 5803 5802 5801 5800 5799 5798 5796 5794 5792 5790 5788 5785 5783 5780 5777 5775 5772 5769 5767 5764 5761 5757 5754 5751 5747 5743 5739 5735 5731 5726 5721 5716 5711 5706 5701 5695 5690 5684 5678 5672 5666 5659 5652 5644 5636 5627 5619 5611 5603 5594 5585 5576 5567 5558 5550 5541 5533 5524 5515 5505 5496 5487 5477 5469 5460 5451 5442 5432 5421 5409 5397 5386 5374
5810 5810 5809 5808 5808 5807 5806 5806 5805 5804 5804 5803 5803 5802 5801 5800 5799 5798 5797 5795 5794 5792 5790 5788 5785 5783 5780 5778 5775 5772 5769 5767 5764 5761 5758 5755 5752 5748 5745 5741 5737 5733 5728 5723 5718 5714 5709 5704 5699 5693 5688 5683 5677 5671 5664 5657 5649 5642 5634 5626 5618 5610 5602 5593 5585 5575 5566 5558 5549 5540 5531 5522 5513 5504 5494 5485 5476 5467 5458 5449 5439 5430 5419 5408 5397 5386 5375
5808 5807 5807 5806 5805 5805 5804 5803 5803 5802 5802 5801 5800 5800 5798 5797 5796 5795 5794 5793 5791 5789 5787 5785 5783 5780 5778 5775 5772 5770 5767 5764 5762 5759 5756 5753 5749 5746 5742 5738 5734 5729 5725 5720 5716 5711 5706 5702 5697 5691 5686 5680 5674 5668 5662 5655 5648 5640 5633 5625 5617 5609 5601 5592 5583 5574 5566 5557 5548 5539 5530 5521 5512 5503 5493 5484 5475 5465 5457 5448 5439 5428 5417 5406 5396 5386 5376
5806 5805 5805 5804 5803 5803 5802 5801 5800 5800 5800 5799 5798 5797 5796 5795 5794 5793 5792 5790 5788 5787 5784 5782 5780 5778 5775 5773 5770 5767 5764 5762 5759 5756 5753 5750 5747 5743 5739 5735 5731 5727 5722 5718 5713 5708 5704 5699 5694 5688 5683 5678 5672 5666 5660 5653 5646 5639 5631 5623 5615 5608 5600 5592 5583 5574 5566 5557 5548 5539 5530 5521 5512 5502 5492 5483 5474 5465 5456 5447 5438 5427 5417 5407 5397 5388 5378
5805 5804 5803 5802 5801 5801 5800 5799 5798 5798 5797 5796 5795 5795 5794 5793 5791 5790 5789 5787 5786 5784 5782 5780 5777 5775 5772 5770 5767 5765 5762 5759 5757 5754 5750 5747 5744 5740 5736 5732 5728 5724 5720 5715 5711 5706 5701 5696 5691 5686 5680 5675 5669 5663 5657 5651 5644 5637 5629 5622 5614 5607 5599 5591 5582 5573 5565 5556 5547 5538 5530 5521 5511 5502 5493 5483 5475 5466 5456 5446 5436 5426 5416 5407 5397 5387 5378
5803 5802 5801 5801 5800 5799 5798 5797 5796 5796 5795 5794 5793 5792 5791 5790 5789 5787 5786 5784 5783 5781 5779 5777 5775 5772 5770 5767 5765 5762 5760 5756 5753 5751 5748 5744 5741 5737 5733 5729 5725 5721 5717 5712 5708 5703 5698 5693 5689 5683 5678 5672 5667 5661 5655 5648 5642 5635 5627 5620 5612 5605 5597 5589 5581 5572 5564 5555 5546 5538 5529 5520 5512 5503 5494 5484 5474 5463 5453 5443 5434 5425 5416 5407 5397 5387 5377
5802 5801 5800 5799 5798 5797 5796 5795 5795 5794 5793 5792 5791 5790 5788 5787 5786 5784 5783 5781 5779 5778 5776 5774 5772 5769 5767 5765 5762 5760 5757 5754 5750 5748 5745 5741 5738 5734 5730 5726 5722 5718 5714 5710 5705 5701 5695 5690 5686 5680 5675 5669 5664 5658 5652 5646 5640 5633 5626 5618 5611 5603 5595 5587 5579 5571 5562 5554 5545 5536 5528 5520 5511 5502 5493 5483 5473 5462 5453 5445 5437 5428 5419 5408 5398 5388 5377
5800 5799 5798 5797 5796 5795 5795 5794 5793 5792 5791 5789 5788 5787 5786 5784 5783 5781 5780 5778 5776 5775 5773 5771 5768 5766 5763 5761 5759 5756 5754 5751 5748 5745 5742 5739 5735 5731 5728 5724 5720 5716 5711 5707 5702 5698 5693 5687 5683 5678 5672 5667 5661 5656 5650 5643 5637 5631 5623 5616 5608 5600 5593 5585 5578 5570 5561 5553 5544 5536 5528 5519 5510 5501 5491 5482 5474 5466 5458 5450 5441 5431 5421 5410 5398 5388 5377